EW1071 Weather Reports


Display with metric or nautical units.
time (UTC)temp
F
wind
direction
speed
MPH
gust
MPH
rain 1hr
in
rain 24hr
in
rain mn
in
humidity
%
barometer
mb
20260508011514 58 84 1.0 10.0 0.00 0.00 0.00 90 1009.7
20260508010023 57 75 0.0 5.0 0.00 0.00 0.00 89 1009.6
20260508004522 57 72 3.0 10.0 0.00 0.00 0.00 89 1009.7
20260508003011 58 42 1.0 5.0 0.00 0.00 0.00 89 1009.8
20260508001510 58 322 0.0 3.0 0.00 0.00 0.00 88 1010.0
20260508000009 58 322 2.0 9.0 0.00 0.00 0.00 88 1010.0
20260507234513 58 95 0.0 4.0 0.00 0.00 0.00 88 1009.9
20260507233013 58 95 1.0 6.0 0.00 0.00 0.00 88 1009.8
20260507231506 58 96 1.0 8.0 0.00 0.00 0.00 88 1009.8
20260507230104 59 91 2.0 9.0 0.00 0.00 0.00 88 1009.9
20260507224501 59 89 1.0 8.0 0.00 0.00 0.00 88 1010.3
20260507223104 59 88 1.0 9.0 0.00 0.00 0.00 88 1010.2
20260507221603 59 79 0.0 9.0 0.00 0.00 0.00 88 1010.6
20260507220056 59 84 2.0 10.0 0.00 0.00 0.00 88 1010.7
20260507214555 59 139 0.0 8.0 0.00 0.00 0.00 87 1011.1
20260507213053 59 100 4.0 15.0 0.00 0.00 0.00 87 1010.8
20260507211559 59 81 7.0 16.0 0.00 0.00 0.00 87 1010.9
20260507210150 60 110 7.0 16.0 0.00 0.00 0.00 87 1011.0
20260507204548 60 102 6.0 18.0 0.00 0.00 0.00 87 1011.2
20260507203051 60 101 8.0 18.0 0.00 0.00 0.00 87 1011.4
20260507201547 60 88 5.0 16.0 0.00 0.00 0.00 87 1011.4
20260507200047 60 108 7.0 16.0 0.00 0.00 0.00 87 1011.4
20260507194545 60 107 7.0 15.0 0.00 0.00 0.00 87 1011.4
20260507193054 60 101 8.0 16.0 0.00 0.00 0.00 87 1011.4
20260507191544 59 96 8.0 16.0 0.00 0.00 0.00 87 1011.2
20260507190043 60 115 7.0 16.0 0.00 0.00 0.00 87 1011.2
20260507184542 60 90 8.0 16.0 0.00 0.00 0.00 86 1011.0
20260507183041 60 97 6.0 14.0 0.00 0.00 0.00 87 1011.0
20260507181540 60 120 6.0 15.0 0.00 0.00 0.00 86 1010.5
20260507180141 61 109 7.0 13.0 0.00 0.00 0.00 86 1010.4
20260507174559 61 101 3.0 12.0 0.00 0.00 0.00 86 1010.3
20260507173039 61 90 8.0 18.0 0.00 0.00 0.00 86 1010.0
20260507171550 61 88 5.0 16.0 0.00 0.00 0.00 86 1009.9
20260507170037 62 98 6.0 11.0 0.00 0.00 0.00 85 1009.6
20260507164539 62 111 7.0 16.0 0.00 0.00 0.00 86 1009.7
20260507163037 62 121 4.0 16.0 0.00 0.00 0.00 86 1009.4
20260507161539 62 90 3.0 12.0 0.00 0.00 0.00 86 1008.9
20260507160057 62 117 5.0 14.0 0.00 0.00 0.00 86 1008.6
20260507154536 63 104 4.0 13.0 0.00 0.00 0.00 85 1008.5
20260507153033 63 111 9.0 16.0 0.00 0.00 0.00 84 1008.4
20260507151533 63 112 6.0 17.0 0.00 0.00 0.00 83 1008.4
20260507150037 64 121 6.0 14.0 0.00 0.00 0.00 83 1008.6
20260507144530 64 124 7.0 17.0 0.00 0.00 0.00 80 1008.3
20260507143030 65 113 7.0 15.0 0.00 0.00 0.00 78 1008.2
20260507141531 65 110 5.0 16.0 0.00 0.00 0.00 77 1008.0
20260507140037 66 111 6.0 14.0 0.00 0.00 0.00 75 1007.6
20260507134530 67 109 5.0 14.0 0.00 0.00 0.00 75 1007.7
20260507133032 68 101 2.0 10.0 0.00 0.00 0.00 71 1007.6
20260507131551 69 103 2.0 11.0 0.00 0.00 0.00 69 1007.8
20260507130027 70 159 1.0 10.0 0.00 0.00 0.00 68 1007.6
20260507124530 70 129 0.0 6.0 0.00 0.00 0.00 68 1007.6
20260507123028 71 131 0.0 0.0 0.00 0.00 0.00 67 1007.6
20260507121522 71 116 0.0 0.0 0.00 0.00 0.00 68 1008.1
20260507120029 71 157 0.0 2.0 0.00 0.00 0.00 68 1008.4
20260507114518 71 183 0.0 3.0 0.00 0.00 0.00 66 1008.7
20260507113040 72 105 0.0 2.0 0.00 0.00 0.00 67 1009.1
20260507111515 71 138 0.0 0.0 0.00 0.00 0.00 67 1009.1
20260507110014 72 190 0.0 0.0 0.00 0.00 0.00 66 1009.1
20260507104514 70 186 0.0 0.0 0.00 0.00 0.00 72 1009.3
20260507103008 69 196 0.0 0.0 0.00 0.00 0.00 74 1009.4
20260507101507 68 328 0.0 0.0 0.00 0.00 0.00 82 1009.8
20260507100013 67 336 0.0 0.0 0.00 0.00 0.00 83 1010.2
20260507094505 67 313 0.0 0.0 0.00 0.00 0.00 83 1010.6
20260507093005 67 312 0.0 9.0 0.00 0.00 0.00 82 1010.9
20260507091503 68 335 0.0 0.0 0.00 0.00 0.00 77 1011.2
20260507090006 70 335 0.0 0.0 0.00 0.00 0.00 73 1011.5
20260507084602 68 336 0.0 0.0 0.00 0.00 0.00 79 1011.7
20260507083057 66 336 0.0 0.0 0.00 0.00 0.00 83 1012.1
20260507081557 65 336 0.0 0.0 0.00 0.00 0.00 86 1012.4
20260507080056 66 336 0.0 0.0 0.00 0.00 0.00 83 1012.7
20260507074554 66 310 0.0 0.0 0.00 0.00 0.00 79 1012.7
20260507073056 66 310 0.0 0.0 0.00 0.00 0.00 83 1012.9
20260507071551 65 310 0.0 0.0 0.00 0.00 0.00 84 1012.9
20260507070103 66 310 0.0 0.0 0.00 0.00 0.00 83 1012.9
20260507064548 63 310 0.0 0.0 0.00 0.00 0.00 89 1012.8
20260507063051 62 310 0.0 0.0 0.00 0.00 0.00 89 1013.1
20260507061541 62 310 0.0 0.0 0.00 0.00 0.00 91 1013.1
20260507060046 60 310 0.0 0.0 0.00 0.00 0.00 92 1013.0
20260507054541 60 311 0.0 0.0 0.00 0.00 0.00 91 1012.9
20260507053035 61 246 0.0 0.0 0.00 0.00 0.00 91 1012.7
20260507051533 60 246 0.0 0.0 0.00 0.00 0.00 92 1012.5
20260507050052 59 246 0.0 0.0 0.00 0.00 0.00 92 1012.5
20260507044536 58 246 0.0 0.0 0.00 0.00 0.00 92 1012.4
20260507043029 58 246 0.0 0.0 0.00 0.00 0.00 92 1012.4
20260507041528 57 246 0.0 0.0 0.00 0.00 0.00 92 1012.4
20260507040028 57 246 0.0 0.0 0.00 0.00 0.00 92 1012.3
20260507034534 57 246 0.0 0.0 0.00 0.00 0.00 92 1012.0
20260507033031 58 246 0.0 0.0 0.00 0.00 0.00 92 1011.8
20260507031532 58 246 0.0 8.0 0.00 0.00 0.00 91 1011.6
20260507030033 58 101 0.0 7.0 0.00 0.00 0.00 91 1011.5
20260507024527 58 113 4.0 14.0 0.00 0.00 0.00 91 1011.2
20260507023023 58 82 6.0 12.0 0.00 0.00 0.00 91 1011.1
20260507021543 58 96 8.0 17.0 0.00 0.00 0.00 91 1010.9
20260507020025 58 116 6.0 17.0 0.00 0.00 0.00 92 1010.9
20260507014522 58 115 6.0 16.0 0.00 0.00 0.00 92 1010.8
20260507013017 58 117 6.0 12.0 0.00 0.00 0.00 92 1011.0